Farnsworth, TX

1:07 AM CST on February 14, 2016 (GMT -0600)
Perryton Ochiltree County

Weather History for KPYX - November, 2012

Change the Weather History Date:

Friday, November 2, 2012

  Actual Average Record
Temperature  
Mean Temperature 64 °F -  
Max Temperature 78 °F - - ()
Min Temperature 50 °F - - ()
Degree Days  
Heating Degree Days 1    
Growing Degree Days 14 (Base 50)    
Moisture  
Dew Point 30 °F    
Average Humidity 34    
Maximum Humidity 58    
Minimum Humidity 16    
Precipitation  
Precipitation 0.00 in - - ()
Sea Level Pressure  
Sea Level Pressure 29.92 in    
Wind  
Wind Speed 12 mph (WNW)    
Max Wind Speed 23 mph    
Max Gust Speed 30 mph    
Visibility 10 miles    
Events      
T = Trace of Precipitation, MM = Missing Value Source: NWS Daily Summary

Daily Weather History Graph

Daily Weather History Graph

Search for Another Location

Airport or City:

Trip Planner

Search our weather history database for the weather conditions in past years. The results will help you decide how hot, cold, wet, or windy it might be!

Date:

Astronomy

Nov. 02, 2012 Rise Set
Actual Time 8:07 AM CDT 6:44 PM CDT
Civil Twilight 7:40 AM CDT 7:11 PM CDT
Nautical Twilight 7:10 AM CDT 7:42 PM CDT
Astronomical Twilight 6:40 AM CDT 8:12 PM CDT
Moon 9:37 PM CDT (11/2) 11:26 AM CDT (11/2)
Length of Visible Light 11h 30m
Length of Day
10h 37m
Waning Gibbous, 87% of the Moon is Illuminated
Nov 2
Waning Gibbous
Nov 6
Last Quarter
Nov 13
New
Nov 20
First Quarter
Nov 28
Full

Hourly Weather History & Observations

Time (CDT) Temp. Dew Point Humidity Pressure Visibility Wind Dir Wind Speed Gust Speed Precip Events Conditions
12:15 AM 53.6 °F 33.8 °F 47% 29.91 in 10.0 mi South 9.2 mph - N/A   Clear
12:35 AM 51.8 °F 32.0 °F 47% 29.91 in 10.0 mi South 8.1 mph - N/A   Clear
12:55 AM 51.8 °F 32.0 °F 47% 29.91 in 10.0 mi South 9.2 mph - N/A   Clear
1:15 AM 50.0 °F 32.0 °F 50% 29.91 in 10.0 mi South 8.1 mph - N/A   Clear
1:35 AM 53.6 °F 32.0 °F 44% 29.91 in 10.0 mi South 9.2 mph - N/A   Clear
1:55 AM 53.6 °F 32.0 °F 44% 29.90 in 10.0 mi SSW 9.2 mph - N/A   Clear
2:15 AM 55.4 °F 32.0 °F 41% 29.90 in 10.0 mi SSW 10.4 mph - N/A   Clear
2:35 AM 57.2 °F 32.0 °F 38% 29.89 in 10.0 mi SSW 12.7 mph - N/A   Clear
2:55 AM 59.0 °F 32.0 °F 36% 29.88 in 10.0 mi SSW 12.7 mph - N/A   Clear
3:15 AM 59.0 °F 32.0 °F 36% 29.88 in 10.0 mi SSW 13.8 mph - N/A   Clear
3:35 AM 57.2 °F 32.0 °F 38% 29.88 in 10.0 mi SSW 12.7 mph - N/A   Clear
3:55 AM 55.4 °F 32.0 °F 41% 29.87 in 10.0 mi SSW 13.8 mph - N/A   Clear
4:15 AM 55.4 °F 32.0 °F 41% 29.87 in 10.0 mi SSW 15.0 mph - N/A   Clear
4:35 AM 55.4 °F 32.0 °F 41% 29.87 in 10.0 mi SSW 13.8 mph - N/A   Clear
4:55 AM 55.4 °F 32.0 °F 41% 29.87 in 10.0 mi SSW 15.0 mph - N/A   Clear
5:15 AM 55.4 °F 30.2 °F 38% 29.87 in 10.0 mi SW 15.0 mph - N/A   Clear
5:35 AM 55.4 °F 30.2 °F 38% 29.87 in 10.0 mi SW 12.7 mph - N/A   Clear
5:55 AM 55.4 °F 30.2 °F 38% 29.87 in 10.0 mi SW 13.8 mph - N/A   Clear
6:15 AM 53.6 °F 30.2 °F 41% 29.87 in 10.0 mi SW 13.8 mph - N/A   Clear
6:35 AM 53.6 °F 30.2 °F 41% 29.87 in 10.0 mi SW 12.7 mph - N/A   Clear
6:55 AM 53.6 °F 30.2 °F 41% 29.87 in 10.0 mi SW 12.7 mph - N/A   Clear
7:15 AM 51.8 °F 30.2 °F 44% 29.87 in 10.0 mi SW 13.8 mph - N/A   Clear
7:35 AM 51.8 °F 32.0 °F 47% 29.87 in 10.0 mi SW 12.7 mph - N/A   Clear
7:55 AM 51.8 °F 32.0 °F 47% 29.87 in 10.0 mi SW 12.7 mph - N/A   Clear
8:15 AM 51.8 °F 32.0 °F 47% 29.87 in 10.0 mi SW 13.8 mph - N/A   Clear
8:35 AM 51.8 °F 32.0 °F 47% 29.87 in 10.0 mi SW 16.1 mph - N/A   Clear
8:55 AM 53.6 °F 32.0 °F 44% 29.88 in 10.0 mi SW 15.0 mph - N/A   Clear
9:15 AM 55.4 °F 32.0 °F 41% 29.89 in 10.0 mi WSW 11.5 mph - N/A   Clear
9:35 AM 57.2 °F 30.2 °F 36% 29.90 in 10.0 mi WSW 13.8 mph - N/A   Clear
9:55 AM 60.8 °F 28.4 °F 29% 29.90 in 10.0 mi West 15.0 mph - N/A   Clear
10:15 AM 60.8 °F 26.6 °F 27% 29.90 in 10.0 mi West 13.8 mph - N/A   Clear
10:35 AM 64.4 °F 24.8 °F 22% 29.90 in 10.0 mi West 15.0 mph - N/A   Clear
10:55 AM 68.0 °F 21.2 °F 17% 29.90 in 10.0 mi West 13.8 mph 17.3 mph N/A   Clear
11:15 AM 69.8 °F 21.2 °F 16% 29.90 in 10.0 mi WNW 16.1 mph - N/A   Clear
11:35 AM 69.8 °F 21.2 °F 16% 29.91 in 10.0 mi NW 12.7 mph - N/A   Clear
11:55 AM 69.8 °F 23.0 °F 17% 29.91 in 10.0 mi NW 13.8 mph 20.7 mph N/A   Clear
12:15 PM 71.6 °F 24.8 °F 17% 29.91 in 10.0 mi WNW 12.7 mph - N/A   Clear
12:35 PM 71.6 °F 26.6 °F 19% 29.91 in 10.0 mi WNW 13.8 mph - N/A   Clear
12:55 PM 73.4 °F 28.4 °F 19% 29.91 in 10.0 mi NW 15.0 mph 18.4 mph N/A   Clear
1:15 PM 77.0 °F 30.2 °F 18% 29.90 in 10.0 mi WNW 13.8 mph 19.6 mph N/A   Clear
1:35 PM 77.0 °F 30.2 °F 18% 29.90 in 10.0 mi NW 16.1 mph 21.9 mph N/A   Clear
1:55 PM 77.0 °F 30.2 °F 18% 29.89 in 10.0 mi NNW 17.3 mph 23.0 mph N/A   Clear
2:15 PM 77.0 °F 30.2 °F 18% 29.89 in 10.0 mi NNW 16.1 mph 21.9 mph N/A   Clear
2:35 PM 77.0 °F 30.2 °F 18% 29.89 in 10.0 mi North 18.4 mph 25.3 mph N/A   Clear
2:55 PM 78.8 °F 30.2 °F 17% 29.88 in 10.0 mi North 19.6 mph 25.3 mph N/A   Clear
3:15 PM 77.0 °F 30.2 °F 18% 29.89 in 10.0 mi North 23.0 mph 29.9 mph N/A   Clear
3:35 PM 77.0 °F 30.2 °F 18% 29.89 in 10.0 mi North 18.4 mph 25.3 mph N/A   Clear
3:55 PM 77.0 °F 30.2 °F 18% 29.90 in 10.0 mi North 16.1 mph 23.0 mph N/A   Clear
4:15 PM 77.0 °F 30.2 °F 18% 29.90 in 10.0 mi NNE 15.0 mph 21.9 mph N/A   Clear
4:55 PM 77.0 °F 28.4 °F 17% 29.91 in 10.0 mi North 19.6 mph 23.0 mph N/A   Clear
5:15 PM 75.2 °F 28.4 °F 18% 29.91 in 10.0 mi North 17.3 mph 25.3 mph N/A   Clear
5:35 PM 73.4 °F 28.4 °F 19% 29.91 in 10.0 mi NNE 16.1 mph 19.6 mph N/A   Clear
5:55 PM 73.4 °F 30.2 °F 20% 29.92 in 10.0 mi NNE 13.8 mph - N/A   Clear
6:15 PM 71.6 °F 28.4 °F 20% 29.94 in 10.0 mi NNE 12.7 mph - N/A   Clear
6:35 PM 68.0 °F 30.2 °F 24% 29.94 in 10.0 mi NNE 10.4 mph - N/A   Clear
6:55 PM 66.2 °F 30.2 °F 26% 29.96 in 10.0 mi NE 9.2 mph - N/A   Clear
7:15 PM 62.6 °F 30.2 °F 30% 29.97 in 10.0 mi NE 6.9 mph - N/A   Clear
7:35 PM 60.8 °F 30.2 °F 31% 29.98 in 10.0 mi NNE 6.9 mph - N/A   Clear
7:55 PM 55.4 °F 28.4 °F 36% 29.99 in 10.0 mi North 6.9 mph - N/A   Clear
8:15 PM 53.6 °F 28.4 °F 38% 30.00 in 10.0 mi NNE 4.6 mph - N/A   Clear
8:35 PM 51.8 °F 28.4 °F 41% 30.00 in 10.0 mi North 8.1 mph - N/A   Clear
8:55 PM 51.8 °F 30.2 °F 44% 30.01 in 10.0 mi NNE 8.1 mph - N/A   Clear
9:15 PM 55.4 °F 32.0 °F 41% 30.02 in 10.0 mi NNE 11.5 mph - N/A   Clear
9:35 PM 55.4 °F 33.8 °F 44% 30.02 in 10.0 mi NNE 13.8 mph - N/A   Clear
9:55 PM 55.4 °F 33.8 °F 44% 30.03 in 10.0 mi NNE 12.7 mph - N/A   Clear
10:35 PM 53.6 °F 33.8 °F 47% 30.04 in 10.0 mi North 15.0 mph - N/A   Clear
10:55 PM 51.8 °F 33.8 °F 50% 30.05 in 10.0 mi NNE 13.8 mph - N/A   Clear
11:15 PM 51.8 °F 33.8 °F 50% 30.05 in 10.0 mi North 13.8 mph - N/A   Clear
11:35 PM 50.0 °F 35.6 °F 58% 30.06 in 10.0 mi North 15.0 mph - N/A   Clear
11:55 PM 50.0 °F 35.6 °F 58% 30.06 in 10.0 mi NNE 12.7 mph 19.6 mph N/A   Clear